Location: Moscow
(55.7500°N, 37.5830°E)
Time: 15:49:11
(UTC+03:00)

Transit 2A - Pass Details

Date: 05 December 2021
Orbit: 591 x 967 km, 66.7° (Epoch: 17 January)

Event Time Altitude Azimuth Distance (km) Brightness Sun altitude
Rises 01:07:04 0° 216° (SW) 3,368 - -55.5°
Reaches altitude 10° 01:09:25 10° 215° (SW) 2,490 - -55.4°
Maximum altitude 01:15:15 79° 130° (SE) 935 - -55.1°
Drops below altitude 10° 01:21:35 10° 45° (NE) 2,690 - -54.7°
Exits shadow 01:23:04 - 44° (NE) 3,237 9.7 -54.6°
Sets 01:24:13 0° 44° (NE) 3,657 10.0 -54.6°
